Simultaneous Nadir Overpasses (SNOs) Predictions

Prediction of SNOs between GOES-15 and NOAA-20 Satellite Orbit:

Table of predicted SNOs for the next 14.0 days since TLE Epoch: 12/3/2022
Index Date Time (GOES-15) GOES-15 Lat,Lon NOAA-20 Lat,Lon Distance(km) Time Diff (sec)
1 12/03/2022 10:04:54 0.03,-127.92 0.55,-130.27 267.07 80
2 12/04/2022 09:48:48 0.04,-127.89 -0.46,-125.73 246.79 80
3 12/05/2022 22:08:03 -0.02,-127.78 -0.76,-131.02 369.93 80
4 12/06/2022 21:51:57 -0.03,-127.74 0.26,-126.49 143.72 80
5 12/08/2022 10:11:04 0.02,-127.76 0.94,-131.74 454.50 80
6 12/09/2022 09:54:58 0.03,-127.73 -0.08,-127.21 58.67 80
7 12/11/2022 21:55:27 -0.02,-127.56 -0.11,-127.97 46.23 80
8 12/12/2022 21:39:21 -0.03,-127.52 0.91,-123.43 466.69 80
9 12/14/2022 09:58:28 0.01,-127.54 0.28,-128.69 132.27 80
10 12/15/2022 09:42:22 0.02,-127.50 -0.74,-124.16 380.43 80
11 12/16/2022 22:01:37 -0.00,-127.36 -0.46,-129.45 238.10 80
